Location: Seale
(32.2974°N, 85.1688°W)
Time: 22:55:57
(UTC+00:00)

N. Korean satellite - Visible Passes

Search period start: 22 January 2021 00:00
Search period end: 01 February 2021 00:00
Orbit: 452 x 502 km, 97.2° (Epoch: 22 January)

Date Brightness Start Highest point End Pass type
(mag) Time Alt. Az. Time Alt. Az. Time Alt. Az.
22 Jan 7.0 10:52:28 10° NNE 10:55:52 58° E 10:59:13 10° S visible
23 Jan 8.9 10:26:27 10° NE 10:29:14 23° E 10:31:59 10° SSE visible
23 Jan 8.2 12:00:32 10° NW 12:02:17 14° WNW 12:04:02 10° WSW visible
24 Jan 7.2 11:32:50 10° NNW 11:35:54 30° WNW 11:38:55 10° SW visible
25 Jan 6.2 11:05:57 10° N 11:09:24 82° WNW 11:12:47 10° SSW visible
26 Jan 8.0 10:39:37 10° NNE 10:42:49 36° E 10:45:57 10° SSE visible
27 Jan 9.5 10:14:04 10° ENE 10:16:07 15° E 10:18:09 10° SE visible
27 Jan 7.7 11:46:47 10° NNW 11:49:21 20° WNW 11:51:52 10° WSW visible
28 Jan 6.6 11:19:35 10° N 11:22:53 48° WNW 11:26:10 10° SSW visible
29 Jan 6.9 10:52:56 10° NNE 10:56:20 60° E 10:59:41 10° S visible
30 Jan 8.9 10:26:54 10° NE 10:29:41 23° E 10:32:26 10° SSE visible
30 Jan 8.2 12:01:05 10° NW 12:02:44 13° WNW 12:04:22 10° W visible
31 Jan 7.2 11:33:18 10° NNW 11:36:19 30° WNW 11:39:19 10° SW visible
